Location: Bosdarros
(43.2167°N, 0.3667°W)
Time: 15:59:58
(UTC+00:00)

Cosmos 1603 - Pass Details

Date: 22 April 2021
Orbit: 830 x 860 km, 71.0° (Epoch: 13 May)

Event Time Altitude Azimuth Distance (km) Brightness Sun altitude
Rises 22:30:37 0° 334° (NNW) 3,433 8.0 -30.6°
Reaches altitude 10° 22:33:05 10° 334° (NNW) 2,489 7.0 -30.8°
Enters shadow 22:37:51 63° 329° (NNW) 945 4.0 -31.2°
